PBO Station Position Time Series. Reference Frame : NAM14
Format Version,1.1.0
4-character ID,P414
Station name,RidgefieldWA2006
Begin Date, 2006-05-12
End Date, 2019-10-07
Release Date, 2019-10-08
Reference position, 45.8348685318 North Latitude, -122.6928377256 East Longitude, 63.85116 meters elevation,
Date, North (mm), East (mm), Vertical (mm), North Std. Deviation (mm), East Std. Deviation (mm),              Vertical Std. Deviation (mm), Quality,
2006-05-12,0.00, 0.00, 0.00, 2.20, 1.55, 7.09, repro,
2006-05-13,0.66, -0.41, -2.42, 2.19, 1.55, 7.07, repro,
2006-05-14,0.75, 0.23, -5.02, 2.19, 1.55, 7.10, repro,
2006-05-15,-0.26, -0.41, 0.60, 2.18, 1.55, 7.08, repro,
2006-05-16,0.02, -0.16, -2.30, 2.19, 1.57, 7.16, repro,
2006-05-17,-1.21, 0.08, 0.08, 2.21, 1.57, 7.21, repro,
2006-05-18,-1.10, 0.44, -1.93, 2.21, 1.55, 7.10, repro,
2006-05-19,-0.08, 0.28, 3.76, 2.26, 1.59, 7.20, repro,
2006-05-20,-0.44, -0.57, 5.62, 2.27, 1.58, 7.21, repro,
2006-05-21,-0.39, 0.85, 2.93, 2.26, 1.57, 7.15, repro,
2006-05-22,-0.33, 0.53, 16.34, 2.27, 1.62, 7.32, repro,
2006-05-23,-2.14, -0.29, 8.64, 2.25, 1.57, 7.16, repro,
2006-05-24,-0.38, 2.15, 2.09, 2.27, 1.63, 7.38, repro,
2006-05-25,0.79, -0.90, -2.08, 2.33, 1.63, 7.45, repro,
2006-05-26,-0.34, -0.72, 1.03, 2.31, 1.62, 7.38, repro,
2006-05-27,0.73, -0.54, 4.94, 2.26, 1.58, 7.17, repro,
2006-05-28,0.03, 0.45, 3.37, 2.24, 1.57, 7.12, repro,
2006-05-29,-0.18, 0.43, -4.20, 2.25, 1.58, 7.20, repro,
2006-05-30,-1.66, 0.02, -2.55, 2.31, 1.62, 7.37, repro,
2006-05-31,0.30, -0.73, 0.95, 2.26, 1.58, 7.20, repro,
2006-06-01,-0.85, 0.39, 5.51, 2.31, 1.61, 7.34, repro,
2006-06-02,1.94, -0.55, -3.09, 2.45, 1.66, 7.67, repro,
2006-06-03,-0.81, -0.31, -1.32, 2.35, 1.63, 7.47, repro,
2006-06-04,-0.34, 0.34, 1.81, 2.32, 1.63, 7.44, repro,
2006-06-05,-0.78, -0.40, 3.01, 2.32, 1.62, 7.37, repro,
2006-06-06,-0.69, 0.28, 4.18, 2.93, 2.09, 9.82, repro,
2006-06-13,-4.97, -1.14, 6.16, 13.90, 7.82, 45.24, repro,
2006-06-15,-2.32, 2.12, 13.63, 6.67, 4.26, 18.54, repro,
2006-06-16,-0.02, 0.27, 6.65, 2.34, 1.63, 7.46, repro,
2006-06-17,0.08, 0.80, 0.46, 2.25, 1.58, 7.13, repro,
2006-06-18,-1.67, 0.88, 2.03, 2.28, 1.61, 7.29, repro,
2006-06-19,-1.26, -0.25, -1.62, 2.27, 1.63, 7.37, repro,
2006-06-20,-1.00, -0.15, 3.59, 2.29, 1.63, 7.40, repro,
2006-06-21,-0.33, -0.18, 2.82, 2.29, 1.62, 7.34, repro,
2006-06-22,-2.62, 0.64, -0.56, 2.29, 1.63, 7.40, repro,
2006-06-23,0.08, 0.03, -0.63, 2.28, 1.62, 7.31, repro,
2006-06-24,-0.91, 0.59, 0.58, 2.27, 1.62, 7.33, repro,
2006-06-25,-0.85, 0.62, -1.05, 2.28, 1.62, 7.36, repro,
2006-06-26,0.13, 0.07, 2.28, 2.28, 1.64, 7.40, repro,
2006-06-27,-0.50, -0.41, 5.29, 2.33, 1.70, 7.55, repro,
2006-06-28,1.60, -1.41, 3.94, 2.28, 1.62, 7.35, repro,
2006-06-29,-2.11, 0.56, 6.05, 2.20, 1.59, 7.19, repro,
2006-06-30,-1.97, 0.48, 11.89, 2.31, 1.64, 7.55, repro,
2006-07-01,-0.21, 0.48, 8.76, 2.27, 1.59, 7.38, repro,
2006-07-02,-0.48, 0.58, 3.26, 2.27, 1.64, 7.48, repro,
2006-07-03,-0.15, -0.98, 0.97, 2.24, 1.59, 7.28, repro,
2006-07-04,-1.18, -0.12, 9.24, 2.25, 1.59, 7.33, repro,
2006-07-05,-1.53, -0.64, 5.53, 2.25, 1.58, 7.28, repro,
2006-07-06,-0.20, -0.66, -0.73, 2.24, 1.59, 7.30, repro,
2006-07-07,0.77, 0.59, -0.25, 2.24, 1.59, 7.32, repro,
2006-07-08,0.57, -0.37, 1.10, 2.24, 1.59, 7.33, repro,
2006-07-09,-0.30, -0.90, 3.94, 2.23, 1.58, 7.24, repro,
2006-07-10,1.17, 0.01, -2.99, 2.24, 1.58, 7.27, repro,
2006-07-11,-0.85, -0.38, 8.23, 2.24, 1.58, 7.34, repro,
2006-07-12,0.03, 0.52, 12.06, 2.25, 1.60, 7.38, repro,
2006-07-13,-1.19, 1.29, 13.91, 2.28, 1.65, 7.57, repro,
2006-07-14,-0.67, -0.28, 4.17, 2.23, 1.59, 7.30, repro,
2006-07-15,0.12, 0.12, 4.68, 2.22, 1.57, 7.21, repro,
2006-07-16,0.25, 0.10, 3.14, 2.25, 1.59, 7.34, repro,
2006-07-17,-0.56, 1.82, 3.73, 2.28, 1.64, 7.53, repro,
2006-07-18,-1.65, 1.63, 9.88, 2.18, 1.56, 7.08, repro,
2006-07-19,2.32, -0.31, 1.22, 2.17, 1.55, 7.05, repro,
2006-07-20,0.21, 0.31, 1.58, 2.17, 1.54, 6.99, repro,
2006-07-21,0.74, 0.45, 8.37, 2.18, 1.55, 7.05, repro,
2006-07-22,1.06, -0.07, 11.70, 2.19, 1.56, 7.14, repro,
2006-07-23,0.60, -0.06, 11.39, 2.18, 1.56, 7.10, repro,
2006-07-24,-0.44, 0.28, 12.22, 2.17, 1.56, 7.07, repro,
2006-07-25,-0.58, -1.12, 7.07, 2.18, 1.55, 7.01, repro,
2006-07-26,1.41, -0.64, 11.65, 2.19, 1.54, 7.04, repro,
2006-07-27,-1.82, 0.99, 4.59, 2.17, 1.56, 7.08, repro,
2006-07-28,0.19, 0.22, 9.89, 2.18, 1.56, 7.10, repro,
2006-07-29,1.56, -0.29, 9.49, 2.17, 1.56, 7.06, repro,
2006-07-30,0.71, -0.38, 13.92, 2.21, 1.60, 7.18, repro,
2006-07-31,-1.15, -0.31, 11.05, 2.18, 1.54, 7.00, repro,
2006-08-01,0.97, 0.48, 7.76, 2.18, 1.55, 7.07, repro,
2006-08-02,-0.23, 0.32, 9.32, 2.21, 1.61, 7.29, repro,
2006-08-03,1.76, 0.13, 10.41, 2.20, 1.61, 7.28, repro,
2006-08-04,-0.02, 0.31, 5.24, 2.27, 1.64, 7.40, repro,
2006-08-05,-1.07, -1.14, 6.19, 2.27, 1.66, 7.43, repro,
2006-08-06,0.23, -0.12, 8.48, 2.22, 1.60, 7.32, repro,
2006-08-07,0.32, -0.34, 5.87, 2.22, 1.61, 7.34, repro,
2006-08-08,0.54, 1.70, 17.34, 2.20, 1.57, 7.18, repro,
2006-08-09,0.76, 0.11, 13.13, 2.16, 1.56, 7.07, repro,
2006-08-10,1.04, -0.06, 6.92, 2.19, 1.55, 7.08, repro,
2006-08-11,-0.77, 0.13, 10.67, 2.17, 1.54, 7.04, repro,
2006-08-12,0.59, 0.96, 8.51, 2.18, 1.56, 7.12, repro,
2006-08-13,0.09, -0.14, 11.94, 2.19, 1.57, 7.16, repro,
2006-08-14,-0.24, 0.63, 11.61, 2.22, 1.62, 7.25, repro,
2006-08-15,-1.33, -0.35, 12.80, 2.25, 1.58, 7.18, repro,
2006-08-16,-1.05, 0.15, 12.78, 2.17, 1.55, 7.02, repro,
2006-08-17,-0.39, 0.55, 10.19, 2.18, 1.55, 7.06, repro,
2006-08-18,1.11, 2.04, 8.44, 2.22, 1.61, 7.24, repro,
2006-08-19,0.91, 0.06, 9.99, 2.18, 1.56, 7.09, repro,
2006-08-20,0.16, 0.28, 15.25, 2.16, 1.56, 7.03, repro,
2006-08-21,0.30, -0.29, 12.03, 2.19, 1.58, 7.14, repro,
2006-08-22,-0.77, 0.03, 13.68, 2.19, 1.57, 7.11, repro,
2006-08-23,0.37, 0.49, 14.66, 2.19, 1.58, 7.16, repro,
2006-08-24,-0.58, 1.32, 16.77, 2.18, 1.58, 7.14, repro,
2006-08-25,-0.43, 0.22, 20.63, 2.22, 1.62, 7.31, repro,
2006-08-26,-0.01, -0.16, 14.76, 2.25, 1.66, 7.52, repro,
2006-08-27,-0.12, 0.12, 10.71, 2.28, 1.68, 7.59, repro,
2006-08-28,0.37, -0.53, 14.27, 2.27, 1.67, 7.56, repro,
2006-08-29,1.43, -0.38, 13.84, 2.27, 1.68, 7.56, repro,
2006-08-30,0.32, -0.05, 13.90, 2.24, 1.66, 7.46, repro,
2006-08-31,0.45, 0.19, 9.07, 2.26, 1.68, 7.54, repro,
2006-09-01,0.01, 0.11, 9.61, 2.26, 1.67, 7.53, repro,
2006-09-02,1.00, 1.00, 10.36, 2.28, 1.67, 7.55, repro,
2006-09-03,1.67, 0.42, 16.03, 2.29, 1.68, 7.63, repro,
2006-09-04,1.51, -0.15, 8.90, 2.33, 1.69, 7.66, repro,
2006-09-05,0.96, -0.17, 6.92, 2.33, 1.70, 7.70, repro,
2006-09-06,-0.19, -0.32, 5.73, 2.27, 1.67, 7.55, repro,
2006-09-07,0.35, 0.03, 11.12, 2.32, 1.71, 7.79, repro,
2006-09-08,1.78, 0.23, 14.84, 2.31, 1.71, 7.85, repro,
2006-09-09,-0.20, 0.33, 14.78, 2.22, 1.62, 7.33, repro,
2006-09-10,-0.04, 0.16, 14.89, 2.21, 1.62, 7.34, repro,
2006-09-11,-0.72, -0.47, 14.59, 2.23, 1.63, 7.37, repro,
2006-09-12,-0.31, -0.65, 9.14, 2.23, 1.62, 7.33, repro,
2006-09-13,1.81, 0.11, 10.00, 2.23, 1.61, 7.31, repro,
2006-09-14,1.91, -3.82, 20.51, 2.42, 1.77, 7.98, repro,
2006-09-15,0.97, 0.21, 15.98, 2.25, 1.61, 7.29, repro,
2006-09-16,-0.87, -0.42, 11.45, 2.17, 1.58, 7.16, repro,
2006-09-17,0.50, -0.17, 14.05, 2.19, 1.57, 7.15, repro,
2006-09-18,0.99, -0.88, 17.08, 2.26, 1.65, 7.60, repro,
2006-09-19,-0.94, -0.34, 18.35, 2.17, 1.57, 7.17, repro,
2006-09-20,0.13, 0.57, 13.07, 2.18, 1.58, 7.20, repro,
2006-09-21,-1.94, 0.76, 19.97, 2.23, 1.64, 7.39, repro,
2006-09-22,-0.05, -0.79, 10.54, 2.28, 1.66, 7.45, repro,
2006-09-23,-1.10, 0.27, 14.22, 2.22, 1.60, 7.25, repro,
2006-09-24,0.36, -0.05, 9.76, 2.24, 1.61, 7.32, repro,
2006-09-25,1.04, 0.02, 14.81, 2.18, 1.58, 7.14, repro,
2006-09-26,0.23, 0.38, 7.96, 2.20, 1.60, 7.24, repro,
2006-09-27,0.06, 0.14, 9.64, 2.19, 1.59, 7.19, repro,
2006-09-28,0.04, -0.51, 13.54, 2.18, 1.59, 7.14, repro,
2006-09-29,-0.16, -0.32, 18.36, 2.19, 1.60, 7.23, repro,
2006-09-30,0.17, -1.05, 23.34, 2.21, 1.63, 7.43, repro,
2006-10-01,-0.08, 0.56, 14.19, 2.24, 1.63, 7.47, repro,
2006-10-02,-1.59, 0.18, 10.91, 2.27, 1.67, 7.41, repro,
2006-10-03,0.51, 0.30, 9.43, 2.30, 1.69, 7.61, repro,
2006-10-04,-0.32, -0.43, 16.38, 2.20, 1.58, 7.19, repro,
2006-10-05,-0.45, 0.50, 16.85, 2.20, 1.58, 7.20, repro,
2006-10-06,0.08, 0.86, 14.66, 2.22, 1.59, 7.24, repro,
2006-10-07,-0.16, -0.20, 5.76, 2.31, 1.68, 7.62, repro,
2006-10-08,0.32, 0.74, 8.59, 2.25, 1.64, 7.36, repro,
2006-10-09,1.11, -0.42, 6.67, 2.23, 1.64, 7.29, repro,
2006-10-10,0.77, 0.03, 14.89, 2.25, 1.64, 7.46, repro,
2006-10-11,0.03, 0.71, 12.76, 2.26, 1.63, 7.45, repro,
2006-10-12,-0.44, 0.14, 14.82, 2.23, 1.61, 7.26, repro,
2006-10-13,-0.88, -0.39, 16.63, 2.19, 1.58, 7.11, repro,
2006-10-14,1.51, -0.05, 19.89, 2.21, 1.62, 7.25, repro,
2006-10-15,1.12, -0.38, 26.18, 2.20, 1.63, 7.29, repro,
2006-10-16,-1.33, -1.00, 37.09, 2.20, 1.60, 7.31, repro,
2006-10-17,-0.05, 0.84, 17.00, 2.34, 1.66, 7.75, repro,
2006-10-18,-1.32, -0.09, 14.14, 2.17, 1.58, 7.12, repro,
2006-10-19,-1.57, 1.36, 15.27, 2.46, 1.74, 7.91, repro,
2006-10-20,0.82, 0.25, 17.07, 2.41, 1.75, 8.26, repro,
2006-10-21,0.63, 0.40, 9.24, 2.48, 1.78, 8.34, repro,
2006-10-22,0.10, 1.09, 13.94, 2.38, 1.70, 7.87, repro,
2006-10-23,-1.00, -0.16, 7.61, 2.32, 1.68, 7.66, repro,
2006-10-24,-0.08, -0.22, 13.01, 2.40, 1.68, 7.82, repro,
2006-10-25,0.70, 1.23, 12.17, 2.49, 1.80, 8.03, repro,
2006-10-26,1.00, 0.80, 9.77, 2.22, 1.65, 7.48, repro,
2006-10-27,-0.09, -0.06, 5.58, 2.19, 1.61, 7.23, repro,
2006-10-28,-1.21, 1.05, 6.95, 2.38, 1.70, 7.75, repro,
2006-10-29,-0.88, 0.42, 8.64, 2.18, 1.60, 7.30, repro,
2006-10-30,1.14, 0.37, 11.44, 2.13, 1.57, 7.06, repro,
2006-10-31,1.39, 0.78, 14.13, 2.16, 1.60, 7.22, repro,
2006-11-01,0.16, 0.03, 15.80, 2.30, 1.65, 7.63, repro,
2006-11-02,0.47, -0.25, 17.81, 2.19, 1.59, 7.26, repro,
2006-11-03,-1.51, 1.87, 14.30, 2.21, 1.63, 7.33, repro,
2006-11-04,-1.66, 0.08, 12.63, 2.25, 1.65, 7.39, repro,
2006-11-05,2.14, 0.70, 9.92, 2.23, 1.63, 7.32, repro,
2006-11-06,-0.10, 1.25, 11.49, 2.15, 1.58, 7.18, repro,
2006-11-07,-0.52, 1.54, 12.90, 2.36, 1.71, 7.67, repro,
2006-11-08,0.65, -0.54, 4.88, 2.30, 1.65, 7.45, repro,
2006-11-09,0.33, 0.43, 14.32, 2.34, 1.71, 7.66, repro,
2006-11-10,1.00, 0.60, 5.40, 2.23, 1.60, 7.21, repro,
2006-11-11,0.83, 0.33, 8.20, 2.27, 1.64, 7.40, repro,
2006-11-12,-0.40, 0.21, 5.44, 2.37, 1.69, 7.56, repro,
2006-11-13,-0.45, 1.02, 15.34, 2.31, 1.65, 7.38, repro,
2006-11-14,1.57, 0.07, 8.85, 2.17, 1.57, 7.13, repro,
2006-11-15,0.72, 1.45, 16.02, 2.15, 1.59, 7.16, repro,
2006-11-16,1.05, 0.10, 5.01, 2.21, 1.59, 7.24, repro,
2006-11-17,0.20, -0.17, 5.06, 2.13, 1.57, 7.05, repro,
2006-11-18,0.50, 0.06, 1.67, 2.15, 1.57, 7.10, repro,
2006-11-19,-0.24, 1.70, 7.68, 2.16, 1.58, 7.17, repro,
2006-11-20,0.84, 1.72, 0.73, 2.16, 1.59, 7.18, repro,
2006-11-21,0.67, -0.08, 14.60, 2.13, 1.57, 7.05, repro,
2006-11-22,0.67, -0.30, 12.49, 2.12, 1.58, 7.05, repro,
2006-11-23,0.61, 1.66, 2.92, 2.19, 1.62, 7.26, repro,
2006-11-24,-0.88, 0.39, 0.41, 2.17, 1.62, 7.27, repro,
2006-11-25,0.70, -0.30, 1.32, 2.15, 1.59, 7.13, repro,
2006-11-26,-0.05, -0.28, 3.41, 2.18, 1.61, 7.20, repro,
2006-11-27,0.51, -0.19, 5.77, 2.17, 1.59, 7.08, repro,
2006-11-28,-0.39, 0.82, 4.89, 2.15, 1.59, 7.09, repro,
2006-11-29,-0.05, 0.56, 0.74, 2.14, 1.57, 7.08, repro,
2006-11-30,1.17, 1.49, -5.33, 2.15, 1.59, 7.14, repro,
2006-12-01,-0.41, 1.69, -5.37, 2.15, 1.59, 7.14, repro,
2006-12-02,-0.10, 1.15, -6.78, 2.15, 1.59, 7.10, repro,
2006-12-03,0.31, 0.93, 2.23, 2.13, 1.57, 6.98, repro,
2006-12-04,-0.04, 1.36, -8.07, 2.19, 1.60, 7.15, repro,
2006-12-05,1.40, 1.07, -0.21, 2.18, 1.63, 7.28, repro,
2006-12-06,0.06, 0.29, -2.66, 2.20, 1.64, 7.33, repro,
2006-12-07,-0.23, 0.97, 0.39, 2.18, 1.65, 7.34, repro,
2006-12-08,-0.81, 1.20, 7.89, 2.19, 1.65, 7.31, repro,
2006-12-09,0.54, 0.25, 6.39, 2.24, 1.70, 7.44, repro,
2006-12-10,0.26, 0.03, 5.37, 2.21, 1.64, 7.29, repro,
2006-12-11,-0.37, 0.62, 3.69, 2.14, 1.59, 7.10, repro,
2006-12-12,2.71, 2.10, 1.00, 2.21, 1.67, 7.40, repro,
2006-12-13,0.52, 0.75, 3.28, 2.16, 1.65, 7.28, repro,
2006-12-14,-0.07, 0.13, 9.24, 2.11, 1.58, 6.99, repro,
2006-12-15,0.48, 0.77, 11.17, 2.27, 1.72, 7.65, repro,
2006-12-16,1.17, 0.05, 2.89, 2.24, 1.70, 7.42, repro,
2006-12-17,0.58, 0.45, 0.43, 2.24, 1.75, 7.75, repro,
2006-12-18,1.00, 1.46, 0.05, 2.43, 1.86, 8.36, repro,
2006-12-19,1.75, 0.13, 0.46, 2.22, 1.73, 7.58, repro,
2006-12-20,0.44, 0.52, 2.84, 2.28, 1.74, 7.57, repro,
2006-12-21,0.61, 1.41, 2.35, 2.16, 1.69, 7.39, repro,
2006-12-22,0.80, 0.77, -1.70, 2.27, 1.80, 7.96, repro,
2006-12-23,1.01, 0.93, -3.62, 2.22, 1.76, 7.71, repro,
2006-12-24,1.01, 0.67, -3.20, 2.13, 1.59, 7.03, repro,
2006-12-25,-0.55, 1.31, -1.70, 2.17, 1.69, 7.34, repro,
2006-12-26,1.61, -0.34, 2.69, 2.20, 1.69, 7.42, repro,
2006-12-27,1.23, 0.06, 9.03, 2.25, 1.73, 7.60, repro,
2006-12-28,1.00, 1.08, -6.03, 2.30, 1.86, 8.06, repro,
2006-12-29,0.31, -1.42, -16.67, 2.20, 1.66, 7.36, repro,
2006-12-30,0.89, 1.10, -3.30, 2.25, 1.72, 7.49, repro,
2006-12-31,1.40, 0.60, -0.52, 2.38, 1.86, 8.14, repro,
2007-01-01,0.00, 1.13, -2.41, 2.30, 1.79, 7.85, repro,
2007-01-02,-0.14, 2.73, 7.29, 2.29, 1.79, 7.83, repro,
2007-01-03,-0.55, -0.87, 9.25, 2.14, 1.64, 7.24, repro,
2007-01-04,0.40, -0.02, 4.74, 2.16, 1.67, 7.29, repro,
2007-01-05,0.20, 0.03, -3.39, 2.14, 1.65, 7.18, repro,
2007-01-06,0.78, 0.60, -2.79, 2.21, 1.73, 7.56, repro,
2007-01-07,0.84, 1.17, -1.89, 2.18, 1.62, 7.16, repro,
2007-01-08,-0.28, 0.84, -6.58, 2.20, 1.66, 7.33, repro,
2007-01-09,-0.79, 1.89, -5.55, 2.17, 1.63, 7.20, repro,
2007-01-10,-0.69, 0.75, 2.24, 2.19, 1.59, 7.04, repro,
2007-01-11,-0.22, -0.53, -3.35, 2.24, 1.62, 7.21, repro,
2007-01-12,0.93, 0.85, -8.88, 2.16, 1.58, 7.06, repro,
2007-01-13,1.33, 0.49, -11.62, 2.11, 1.55, 6.93, repro,
2007-01-14,0.38, 0.83, -13.44, 2.10, 1.55, 6.91, repro,
2007-01-15,1.14, 1.19, -12.41, 2.09, 1.54, 6.86, repro,
2007-01-16,0.39, 1.27, -6.70, 2.13, 1.55, 6.88, repro,
2007-01-17,0.78, 0.93, -7.04, 2.14, 1.60, 7.08, repro,
2007-01-18,1.12, 1.02, -16.94, 2.18, 1.64, 7.24, repro,
2007-01-19,1.01, 1.05, -5.15, 2.15, 1.57, 7.11, repro,
2007-01-20,-0.52, 0.55, -3.91, 2.20, 1.63, 7.22, repro,
2007-01-21,0.49, 1.74, -4.63, 2.08, 1.53, 6.77, repro,
2007-01-22,0.61, 1.69, -4.63, 2.11, 1.55, 6.90, repro,
2007-01-23,0.41, 0.51, -6.00, 2.12, 1.55, 6.90, repro,
2007-01-24,0.21, 1.79, -8.52, 2.10, 1.55, 6.91, repro,
2007-01-25,-0.22, 1.12, -9.67, 2.15, 1.59, 6.98, repro,
2007-01-26,0.95, 1.28, -5.95, 2.09, 1.54, 6.80, repro,
2007-01-27,0.67, 1.78, -7.81, 2.10, 1.54, 6.84, repro,
2007-01-28,0.55, 1.05, -8.40, 2.11, 1.54, 6.84, repro,
2007-01-29,1.42, 1.47, -9.08, 2.09, 1.55, 6.86, repro,
2007-01-30,1.52, 0.80, -1.92, 2.09, 1.55, 6.84, repro,
2007-01-31,-0.02, 1.18, 2.67, 2.08, 1.54, 6.78, repro,
2007-02-01,0.21, 2.00, -2.51, 2.14, 1.58, 6.96, repro,
2007-02-02,1.02, 2.00, -5.01, 2.14, 1.57, 6.99, repro,
2007-02-03,0.91, 1.25, -6.93, 2.14, 1.56, 6.97, repro,
2007-02-04,-0.07, 2.29, -1.08, 2.09, 1.55, 6.85, repro,
2007-02-05,0.66, 1.38, -7.40, 2.10, 1.55, 6.84, repro,
2007-02-06,1.12, 0.33, -6.97, 2.09, 1.54, 6.79, repro,
2007-02-07,1.15, 0.56, -3.28, 2.11, 1.55, 6.83, repro,
2007-02-08,0.92, 1.36, -6.54, 2.13, 1.61, 7.02, repro,
2007-02-09,0.60, 2.48, -2.49, 2.11, 1.60, 6.97, repro,
2007-02-10,-0.22, 2.41, 2.53, 2.11, 1.56, 6.90, repro,
2007-02-11,1.34, 1.17, 5.66, 2.10, 1.55, 6.83, repro,
2007-02-12,1.47, 1.13, -5.50, 2.09, 1.54, 6.79, repro,
2007-02-13,1.07, 1.72, -4.91, 2.10, 1.55, 6.86, repro,
2007-02-14,0.47, 1.65, -4.57, 2.09, 1.54, 6.81, repro,
2007-02-15,0.16, 2.65, 0.20, 2.10, 1.56, 6.88, repro,
2007-02-16,-0.85, 1.76, 1.51, 2.12, 1.56, 6.90, repro,
2007-02-17,0.69, 1.51, -0.12, 2.13, 1.58, 6.98, repro,
2007-02-18,0.19, 1.78, 3.00, 2.12, 1.55, 6.92, repro,
2007-02-19,-0.81, 0.67, 4.83, 2.08, 1.55, 6.83, repro,
2007-02-20,0.26, 1.18, 10.60, 2.10, 1.55, 6.87, repro,
2007-02-21,0.44, 1.27, 0.18, 2.11, 1.56, 6.89, repro,
2007-02-22,1.42, 1.32, 2.09, 2.10, 1.55, 6.87, repro,
2007-02-23,1.22, 1.47, -1.14, 2.21, 1.64, 7.22, repro,
2007-02-24,-0.06, 1.18, 0.30, 2.10, 1.55, 6.82, repro,
2007-02-25,0.04, 0.16, 5.24, 2.09, 1.54, 6.81, repro,
2007-02-26,0.55, 0.15, 4.42, 2.11, 1.56, 6.89, repro,
2007-02-27,1.33, 2.65, 1.32, 2.10, 1.55, 6.85, repro,
2007-02-28,0.63, 1.61, 5.93, 2.11, 1.55, 6.84, repro,
2007-03-01,-1.62, 1.45, -2.82, 2.17, 1.61, 7.07, repro,
2007-03-02,-0.02, 1.22, -6.59, 2.17, 1.62, 7.08, repro,
2007-03-03,0.69, 1.40, -6.33, 2.16, 1.60, 7.03, repro,
2007-03-04,0.94, 2.12, -8.33, 2.15, 1.59, 7.03, repro,
2007-03-05,0.48, 1.84, -4.59, 2.14, 1.59, 7.00, repro,
2007-03-06,-0.77, 0.60, -2.90, 2.17, 1.60, 7.08, repro,
2007-03-07,0.41, 1.53, 1.12, 2.15, 1.59, 6.98, repro,
2007-03-08,0.39, 2.11, -0.60, 2.16, 1.59, 6.99, repro,
2007-03-09,1.10, 1.55, 3.16, 2.17, 1.59, 7.05, repro,
2007-03-10,0.45, 1.35, -0.82, 2.25, 1.61, 7.19, repro,
2007-03-11,0.84, 1.61, -3.75, 2.15, 1.59, 7.02, repro,
2007-03-12,0.26, 0.86, -2.23, 2.16, 1.58, 6.98, repro,
2007-03-13,0.49, 1.35, 1.15, 2.11, 1.54, 6.86, repro,
2007-03-14,1.18, 2.04, -1.77, 2.13, 1.56, 6.92, repro,
2007-03-15,0.81, 1.36, -9.33, 2.16, 1.57, 6.95, repro,
2007-03-16,-0.51, 1.82, -4.62, 2.16, 1.57, 6.96, repro,
2007-03-17,0.80, 1.63, -0.27, 2.12, 1.55, 6.85, repro,
2007-03-18,0.15, 2.22, 1.93, 2.12, 1.54, 6.83, repro,
2007-03-19,-1.45, 1.20, 3.57, 2.13, 1.56, 6.92, repro,
2007-03-20,0.49, 1.69, -0.96, 2.22, 1.57, 6.92, repro,
2007-03-21,0.70, 1.39, 2.09, 2.22, 1.58, 6.95, repro,
2007-03-22,-0.29, 1.14, 6.67, 2.13, 1.55, 6.87, repro,
2007-03-23,0.07, 1.12, -0.32, 2.16, 1.58, 7.03, repro,
2007-03-24,-0.24, 1.57, 2.01, 2.13, 1.55, 6.86, repro,
2007-03-25,-0.15, 1.50, 5.09, 2.13, 1.55, 6.87, repro,
2007-03-26,0.39, 0.77, -1.42, 2.14, 1.54, 6.82, repro,
2007-03-27,0.26, 1.28, 2.74, 2.16, 1.55, 6.87, repro,
2007-03-28,0.79, 1.42, -6.53, 2.17, 1.57, 6.98, repro,
2007-03-29,-0.38, 2.24, -7.46, 2.14, 1.55, 6.92, repro,
2007-03-30,1.47, 2.41, -5.54, 2.13, 1.55, 6.87, repro,
2007-03-31,0.72, 1.09, -0.50, 2.14, 1.55, 6.87, repro,
2007-04-01,0.32, 0.88, -1.59, 2.11, 1.54, 6.77, repro,
2007-04-02,1.20, 0.90, -0.35, 2.11, 1.54, 6.76, repro,
2007-04-03,0.99, 0.99, -6.18, 2.16, 1.59, 7.01, repro,
2007-04-04,1.52, 1.57, -8.96, 2.18, 1.58, 7.01, repro,
2007-04-05,0.02, 1.62, -7.46, 2.21, 1.63, 7.14, repro,
2007-04-06,1.26, 2.53, -4.32, 2.15, 1.57, 6.90, repro,
2007-04-07,1.27, 2.20, 3.91, 2.15, 1.57, 6.89, repro,
2007-04-08,1.16, 1.64, -3.14, 2.14, 1.54, 6.84, repro,
2007-04-09,1.39, 1.14, -0.24, 2.16, 1.55, 6.92, repro,
2007-04-10,-0.03, 1.68, 2.59, 2.18, 1.57, 7.01, repro,
2007-04-11,0.44, 1.98, 4.24, 2.13, 1.53, 6.81, repro,
2007-04-12,1.35, 1.60, 5.75, 2.11, 1.54, 6.79, repro,
2007-04-13,1.60, 2.46, -2.46, 2.12, 1.53, 6.79, repro,
2007-04-14,0.04, 2.13, 5.87, 2.13, 1.54, 6.83, repro,
2007-04-15,-0.45, 1.81, -1.30, 2.16, 1.54, 6.89, repro,
2007-04-16,-1.26, 2.18, 2.47, 2.14, 1.54, 6.87, repro,
2007-04-17,-0.65, 0.84, -4.71, 2.13, 1.54, 6.82, repro,
2007-04-18,1.28, 1.48, 0.52, 2.14, 1.54, 6.86, repro,
2007-04-19,0.78, 0.92, -1.19, 2.15, 1.54, 6.84, repro,
2007-04-20,0.16, 0.63, 6.55, 2.14, 1.54, 6.85, repro,
2007-04-21,0.56, 1.20, 2.87, 2.14, 1.54, 6.87, repro,
2007-04-22,0.44, 1.60, 4.56, 2.13, 1.54, 6.82, repro,
2007-04-23,1.82, 1.66, -0.66, 2.16, 1.56, 6.94, repro,
2007-04-24,0.73, 1.24, -7.95, 2.17, 1.56, 6.95, repro,
2007-04-25,0.91, 1.87, -3.40, 2.18, 1.55, 6.94, repro,
2007-04-26,0.25, 1.60, 1.56, 2.14, 1.54, 6.86, repro,
2007-04-27,-0.07, 2.21, 3.10, 2.15, 1.54, 6.90, repro,
2007-04-28,0.28, 2.11, -3.17, 2.14, 1.54, 6.88, repro,
2007-04-29,0.86, 2.02, 3.92, 2.15, 1.53, 6.92, repro,
2007-04-30,1.25, 1.18, -0.28, 2.14, 1.53, 6.86, repro,
2007-05-01,2.11, 2.19, 1.31, 2.13, 1.53, 6.83, repro,
2007-05-02,2.29, 1.58, -2.38, 2.22, 1.56, 7.10, repro,
2007-05-03,0.43, 1.74, 0.56, 2.28, 1.61, 7.31, repro,
2007-05-04,0.88, 1.94, -5.08, 2.15, 1.53, 6.89, repro,
2007-05-05,0.58, 0.30, -1.54, 2.20, 1.58, 7.09, repro,
2007-05-06,0.93, 1.42, -3.46, 2.16, 1.54, 6.90, repro,
2007-05-07,1.08, 2.58, -5.65, 2.15, 1.53, 6.88, repro,
2007-05-08,0.67, 2.46, -0.20, 2.16, 1.52, 6.86, repro,
2007-05-09,0.66, 1.77, -5.97, 2.16, 1.52, 6.87, repro,
2007-05-10,-0.12, 1.37, -8.65, 2.26, 1.60, 7.31, repro,
2007-05-11,1.45, 1.60, -6.70, 2.25, 1.60, 7.31, repro,
2007-05-12,0.85, 2.40, -0.69, 2.16, 1.54, 6.93, repro,
2007-05-13,1.03, 2.13, -4.83, 2.20, 1.57, 7.01, repro,
2007-05-14,0.54, 2.49, -7.48, 2.19, 1.55, 7.00, repro,
2007-05-15,0.23, 2.08, -6.27, 2.17, 1.53, 6.91, repro,
2007-05-16,0.22, 1.16, -4.29, 2.22, 1.56, 7.10, repro,
2007-05-17,0.85, 1.82, -3.06, 2.18, 1.57, 7.07, repro,
2007-05-18,2.04, 1.25, -0.59, 2.22, 1.61, 7.17, repro,
2007-05-19,0.23, 2.05, -4.99, 2.20, 1.58, 7.06, repro,
2007-05-20,0.69, 2.26, -1.95, 2.21, 1.58, 7.04, repro,
2007-05-21,1.30, 2.18, -6.41, 2.29, 1.70, 7.57, repro,
2007-05-22,0.42, 1.35, -2.07, 2.16, 1.54, 6.92, repro,
2007-05-23,0.91, 2.60, -2.74, 2.15, 1.54, 6.90, repro,
2007-05-24,0.51, 1.50, -3.12, 2.23, 1.60, 7.13, repro,
2007-05-25,0.23, 1.83, -1.66, 2.17, 1.53, 6.92, repro,
2007-05-26,1.32, 2.06, -2.47, 2.22, 1.57, 7.03, repro,
2007-05-27,0.39, 1.18, -0.93, 2.17, 1.53, 6.89, repro,
2007-05-28,0.72, 1.88, -0.26, 2.16, 1.54, 6.89, repro,
2007-05-29,0.90, 1.75, -2.95, 2.16, 1.53, 6.89, repro,
2007-05-30,0.99, 2.06, -1.51, 2.21, 1.54, 6.94, repro,
2007-05-31,0.68, 1.22, -4.03, 2.20, 1.57, 6.96, repro,
2007-06-01,0.56, 2.42, -2.93, 2.16, 1.53, 6.85, repro,
2007-06-02,-0.16, 1.42, -1.97, 2.17, 1.54, 6.89, repro,
2007-06-03,1.13, 2.05, -2.80, 2.15, 1.53, 6.85, repro,
2007-06-04,1.91, 1.90, -0.47, 2.20, 1.59, 7.14, repro,
2007-06-05,0.68, 1.46, 5.27, 2.20, 1.54, 7.00, repro,
2007-06-06,-0.32, 1.58, 7.22, 2.14, 1.52, 6.80, repro,
2007-06-07,0.36, 0.71, 4.11, 2.15, 1.53, 6.83, repro,
2007-06-08,0.14, 1.50, 1.94, 2.15, 1.53, 6.85, repro,
2007-06-09,-0.23, 1.09, 0.46, 2.16, 1.54, 6.89, repro,
2007-06-10,1.93, 1.66, -5.54, 2.15, 1.54, 6.90, repro,
2007-06-11,1.14, 1.55, 2.74, 2.16, 1.56, 6.92, repro,
2007-06-12,-0.45, 1.61, -3.38, 2.17, 1.57, 6.94, repro,
2007-06-13,0.45, 0.86, -4.35, 2.22, 1.59, 7.06, repro,
2007-06-14,0.49, 0.96, -5.59, 2.20, 1.58, 7.01, repro,
2007-06-15,1.46, 0.91, -3.82, 2.15, 1.54, 6.87, repro,
2007-06-16,1.09, -0.05, -1.48, 2.14, 1.53, 6.83, repro,
2007-06-17,1.30, 0.54, -0.72, 2.13, 1.52, 6.77, repro,
2007-06-18,1.17, 1.44, 3.04, 2.17, 1.54, 6.87, repro,
2007-06-19,0.58, 0.70, -2.17, 2.17, 1.54, 6.89, repro,
2007-06-20,0.44, 0.68, -7.93, 2.16, 1.53, 6.89, repro,
2007-06-21,0.49, 0.71, -1.71, 2.15, 1.55, 6.94, repro,
2007-06-22,0.85, 0.06, -4.12, 2.15, 1.54, 6.86, repro,
2007-06-23,0.81, 0.27, -2.20, 2.14, 1.53, 6.79, repro,
2007-06-24,-0.68, 0.11, 8.94, 2.20, 1.59, 7.07, repro,
2007-06-25,1.11, 0.12, -6.77, 2.15, 1.53, 6.84, repro,
2007-06-26,-0.48, -0.59, -10.44, 2.14, 1.53, 6.85, repro,
2007-06-27,0.32, -0.61, -5.44, 2.15, 1.54, 6.93, repro,
2007-06-28,-0.45, -0.77, -1.13, 2.20, 1.58, 7.04, repro,
2007-06-29,-1.53, -2.41, -1.73, 2.22, 1.58, 7.05, repro,
2007-06-30,1.17, -1.72, -0.79, 2.16, 1.53, 6.88, repro,
2007-07-01,0.27, -0.95, -4.03, 2.15, 1.53, 6.89, repro,
2007-07-02,-1.81, -2.03, -1.47, 2.15, 1.54, 6.91, repro,
2007-07-03,-1.64, -0.95, -3.52, 2.15, 1.53, 6.87, repro,
2007-07-04,0.40, -0.85, -1.47, 2.15, 1.54, 6.86, repro,
2007-07-05,-0.43, -1.19, 0.56, 2.15, 1.52, 6.81, repro,
2007-07-06,-0.64, -0.97, -4.92, 2.15, 1.53, 6.84, repro,
2007-07-07,-0.60, -0.18, -4.39, 2.17, 1.54, 6.91, repro,
2007-07-08,-1.12, -1.07, 0.56, 2.16, 1.54, 6.90, repro,
2007-07-09,-0.50, -0.81, -2.42, 2.14, 1.54, 6.82, repro,
2007-07-10,-0.46, -0.71, -0.18, 2.15, 1.55, 6.89, repro,
2007-07-11,0.78, -1.29, 1.23, 2.13, 1.53, 6.80, repro,
2007-07-12,-0.33, -0.77, -0.15, 2.17, 1.54, 6.90, repro,
2007-07-13,-1.16, -1.43, -1.34, 2.26, 1.63, 7.29, repro,
2007-07-14,-1.05, -1.66, 5.53, 2.20, 1.59, 7.13, repro,
2007-07-15,0.36, -1.38, 13.46, 2.16, 1.55, 6.92, repro,
2007-07-16,0.60, -1.14, 8.40, 2.13, 1.54, 6.82, repro,
2007-07-17,-1.21, -1.59, 4.98, 2.14, 1.54, 6.82, repro,
2007-07-18,-0.17, -1.65, -0.12, 2.21, 1.58, 7.05, repro,